Zurück zum Katalog

FLTSATCOM 7

USA 20

AktivMilitärGEO
NORAD 17181·PAYLOAD·🇺🇸 United States

Gestartet Dec 5, 1986 von Cape Canaveral Space Force Station

Loading…

TLE

AktuellSource: Space-Track

Epoche: Sep 14, 2026, 11:50 UTC

1 17181U 86096A   26257.49364858 -.00000089  00000-0  00000-0 0  9994
2 17181  12.6313 339.5198 0040981 329.7308  59.8590  0.98929513152851

Verfolge FLTSATCOM 7 in Echtzeit mit AllMySat

Download on the App Store